| time (UTC) | temp F | wind direction | speed knots | gust knots | rain 1hr in | rain 24hr in | rain mn in | humidity % | barometer mb |
| 20260508071238 | 75 | 0.0 | 0.0 | 0.00 | 0.00 | 0.00 | 36 | 1001.6 | |
| 20260508070737 | 74 | 0.0 | 0.0 | 0.00 | 0.00 | 0.00 | 34 | 1001.6 | |
| 20260508070237 | 74 | 0.0 | 0.0 | 0.00 | 0.00 | 0.00 | 31 | 1001.5 | |
| 20260508065737 | 74 | 0.0 | 0.0 | 0.00 | 0.00 | 0.00 | 32 | 1001.5 | |
| 20260508065245 | 73 | 0.0 | 0.0 | 0.00 | 0.00 | 0.00 | 31 | 1001.5 | |
| 20260508064733 | 73 | 0.0 | 0.0 | 0.00 | 0.00 | 0.00 | 32 | 1001.5 | |
| 20260508064229 | 72 | 0.0 | 0.0 | 0.00 | 0.00 | 0.00 | 33 | 1001.6 | |
| 20260508063729 | 72 | 0.0 | 0.0 | 0.00 | 0.00 | 0.00 | 34 | 1001.5 | |
| 20260508063227 | 72 | 0.0 | 0.0 | 0.00 | 0.00 | 0.00 | 34 | 1001.5 | |
| 20260508062726 | 73 | 0.0 | 0.0 | 0.00 | 0.00 | 0.00 | 33 | 1001.5 | |
| 20260508062225 | 74 | 0.0 | 0.0 | 0.00 | 0.00 | 0.00 | 35 | 1001.5 | |
| 20260508061724 | 74 | 0.0 | 0.0 | 0.00 | 0.00 | 0.00 | 35 | 1001.7 | |
| 20260508061223 | 73 | 0.0 | 0.0 | 0.00 | 0.00 | 0.00 | 35 | 1001.7 | |
| 20260508060722 | 73 | 0.0 | 0.0 | 0.00 | 0.00 | 0.00 | 34 | 1001.6 | |
| 20260508060221 | 73 | 0.0 | 0.0 | 0.00 | 0.00 | 0.00 | 33 | 1001.8 | |
| 20260508055720 | 73 | 0.0 | 0.0 | 0.00 | 0.00 | 0.00 | 35 | 1001.7 | |
| 20260508055219 | 73 | 0.0 | 0.0 | 0.00 | 0.00 | 0.00 | 34 | 1001.8 | |
| 20260508054718 | 73 | 0.0 | 0.0 | 0.00 | 0.00 | 0.00 | 34 | 1001.7 | |
| 20260508054217 | 73 | 0.0 | 0.0 | 0.00 | 0.00 | 0.00 | 35 | 1001.8 | |
| 20260508053716 | 73 | 0.0 | 0.0 | 0.00 | 0.00 | 0.00 | 37 | 1001.8 | |
| 20260508053215 | 73 | 0.0 | 0.0 | 0.00 | 0.00 | 0.00 | 34 | 1001.9 | |
| 20260508052713 | 73 | 0.0 | 0.0 | 0.00 | 0.00 | 0.00 | 35 | 1001.9 | |
| 20260508052215 | 73 | 0.0 | 0.0 | 0.00 | 0.00 | 0.00 | 35 | 1001.9 | |
| 20260508051712 | 73 | 0.0 | 0.0 | 0.00 | 0.00 | 0.00 | 36 | 1001.9 | |
| 20260508051211 | 72 | 0.0 | 0.0 | 0.00 | 0.00 | 0.00 | 36 | 1001.9 | |
| 20260508050713 | 72 | 0.0 | 0.0 | 0.00 | 0.00 | 0.00 | 37 | 1001.9 | |
| 20260508050209 | 72 | 0.0 | 0.0 | 0.00 | 0.00 | 0.00 | 36 | 1001.9 | |
| 20260508045708 | 72 | 0.0 | 0.0 | 0.00 | 0.00 | 0.00 | 37 | 1001.8 | |
| 20260508045207 | 72 | 0.0 | 0.0 | 0.00 | 0.00 | 0.00 | 37 | 1001.8 | |
| 20260508044708 | 72 | 0.0 | 0.0 | 0.00 | 0.00 | 0.00 | 35 | 1001.9 | |
| 20260508044205 | 72 | 0.0 | 0.0 | 0.00 | 0.00 | 0.00 | 36 | 1001.9 | |
| 20260508043706 | 72 | 0.0 | 0.0 | 0.00 | 0.00 | 0.00 | 37 | 1002.0 | |
| 20260508043204 | 72 | 0.0 | 0.0 | 0.00 | 0.00 | 0.00 | 37 | 1001.9 | |
| 20260508042703 | 72 | 0.0 | 0.0 | 0.00 | 0.00 | 0.00 | 39 | 1002.0 | |
| 20260508042201 | 72 | 0.0 | 0.0 | 0.00 | 0.00 | 0.00 | 40 | 1001.9 | |
| 20260508041700 | 72 | 0.0 | 0.0 | 0.00 | 0.00 | 0.00 | 41 | 1002.1 | |
| 20260508041159 | 71 | 0.0 | 0.0 | 0.00 | 0.00 | 0.00 | 42 | 1002.0 | |
| 20260508040700 | 71 | 0.0 | 0.0 | 0.00 | 0.00 | 0.00 | 41 | 1002.1 | |
| 20260508040157 | 71 | 0.0 | 0.0 | 0.00 | 0.00 | 0.00 | 42 | 1002.0 | |
| 20260508035657 | 71 | 0.0 | 0.0 | 0.00 | 0.00 | 0.00 | 41 | 1001.9 | |
| 20260508035155 | 71 | 0.0 | 0.0 | 0.00 | 0.00 | 0.00 | 41 | 1001.9 | |
| 20260508034654 | 71 | 0.0 | 0.0 | 0.00 | 0.00 | 0.00 | 40 | 1002.0 | |
| 20260508034153 | 71 | 0.0 | 0.0 | 0.00 | 0.00 | 0.00 | 40 | 1001.8 | |
| 20260508033654 | 71 | 0.0 | 0.0 | 0.00 | 0.00 | 0.00 | 37 | 1001.8 | |
| 20260508033203 | 71 | 0.0 | 0.0 | 0.00 | 0.00 | 0.00 | 39 | 1001.7 | |
| 20260508032714 | 71 | 0.0 | 0.0 | 0.00 | 0.00 | 0.00 | 41 | 1001.7 | |
| 20260508032149 | 71 | 0.0 | 0.0 | 0.00 | 0.00 | 0.00 | 43 | 1001.7 | |
| 20260508031648 | 71 | 0.0 | 0.0 | 0.00 | 0.00 | 0.00 | 44 | 1001.8 | |
| 20260508031149 | 71 | 0.0 | 0.0 | 0.00 | 0.00 | 0.00 | 46 | 1001.7 | |
| 20260508030648 | 71 | 0.0 | 0.0 | 0.00 | 0.00 | 0.00 | 47 | 1001.7 | |
| 20260508030145 | 71 | 0.0 | 0.0 | 0.00 | 0.00 | 0.00 | 49 | 1001.7 | |
| 20260508025644 | 71 | 0.0 | 0.0 | 0.00 | 0.00 | 0.00 | 52 | 1001.7 | |
| 20260508025144 | 71 | 0.0 | 0.0 | 0.00 | 0.00 | 0.00 | 55 | 1001.5 | |
| 20260508024643 | 71 | 0.0 | 0.0 | 0.00 | 0.00 | 0.00 | 55 | 1001.6 | |
| 20260508024141 | 71 | 0.0 | 0.0 | 0.00 | 0.00 | 0.00 | 55 | 1001.7 | |
| 20260508023641 | 70 | 0.0 | 0.0 | 0.00 | 0.00 | 0.00 | 56 | 1001.8 | |
| 20260508023139 | 70 | 0.0 | 0.0 | 0.00 | 0.00 | 0.00 | 56 | 1001.8 | |
| 20260508022640 | 70 | 0.0 | 0.0 | 0.00 | 0.00 | 0.00 | 57 | 1001.7 | |
| 20260508022137 | 70 | 0.0 | 0.0 | 0.00 | 0.00 | 0.00 | 58 | 1001.8 | |
| 20260508021639 | 70 | 0.0 | 0.0 | 0.00 | 0.00 | 0.00 | 59 | 1001.7 | |
| 20260508021138 | 70 | 0.0 | 0.0 | 0.00 | 0.00 | 0.00 | 59 | 1001.7 | |
| 20260508020641 | 70 | 0.0 | 0.0 | 0.00 | 0.00 | 0.00 | 60 | 1001.8 | |
| 20260508020138 | 69 | 0.0 | 0.0 | 0.00 | 0.00 | 0.00 | 60 | 1001.7 | |
| 20260508015633 | 69 | 0.0 | 0.0 | 0.00 | 0.00 | 0.00 | 60 | 1001.7 | |
| 20260508015133 | 69 | 0.0 | 0.0 | 0.00 | 0.00 | 0.00 | 60 | 1001.7 | |
| 20260508014630 | 69 | 0.0 | 0.0 | 0.00 | 0.00 | 0.00 | 60 | 1001.7 | |
| 20260508014129 | 69 | 0.0 | 0.0 | 0.00 | 0.00 | 0.00 | 59 | 1001.6 | |
| 20260508013628 | 69 | 0.0 | 0.0 | 0.00 | 0.00 | 0.00 | 60 | 1001.6 | |
| 20260508013127 | 68 | 0.0 | 0.0 | 0.00 | 0.00 | 0.00 | 63 | 1001.6 | |
| 20260508012626 | 68 | 0.0 | 0.0 | 0.00 | 0.00 | 0.00 | 63 | 1001.6 | |
| 20260508012125 | 68 | 0.0 | 0.0 | 0.00 | 0.00 | 0.00 | 63 | 1001.4 | |
| 20260508011624 | 68 | 0.0 | 0.0 | 0.00 | 0.00 | 0.00 | 63 | 1001.3 | |
| 20260508011123 | 68 | 0.0 | 0.0 | 0.00 | 0.00 | 0.00 | 63 | 1001.4 | |
| 20260508010622 | 68 | 0.0 | 0.0 | 0.00 | 0.00 | 0.00 | 64 | 1001.3 | |
| 20260508010121 | 68 | 0.0 | 0.0 | 0.00 | 0.00 | 0.00 | 64 | 1001.2 | |
| 20260508005620 | 68 | 0.0 | 0.0 | 0.00 | 0.00 | 0.00 | 65 | 1001.2 | |
| 20260508005119 | 68 | 0.0 | 0.0 | 0.00 | 0.00 | 0.00 | 66 | 1001.1 | |
| 20260508004618 | 68 | 0.0 | 0.0 | 0.00 | 0.00 | 0.00 | 66 | 1001.0 | |
| 20260508004117 | 68 | 0.0 | 0.0 | 0.00 | 0.00 | 0.00 | 68 | 1001.0 | |
| 20260508003616 | 67 | 0.0 | 0.0 | 0.00 | 0.00 | 0.00 | 69 | 1001.0 | |
| 20260508003115 | 67 | 0.0 | 0.0 | 0.00 | 0.00 | 0.00 | 71 | 1001.0 | |
| 20260508002614 | 67 | 0.0 | 0.0 | 0.00 | 0.00 | 0.00 | 71 | 1001.0 | |
| 20260508002113 | 67 | 0.0 | 0.0 | 0.00 | 0.00 | 0.00 | 72 | 1001.0 | |
| 20260508001612 | 67 | 0.0 | 0.0 | 0.00 | 0.00 | 0.00 | 73 | 1001.1 | |
| 20260508001111 | 67 | 0.0 | 0.0 | 0.00 | 0.00 | 0.00 | 74 | 1001.0 | |
| 20260508000610 | 67 | 0.0 | 0.0 | 0.00 | 0.00 | 0.00 | 75 | 1001.0 | |
| 20260508000109 | 67 | 0.0 | 0.0 | 0.00 | 0.00 | 0.00 | 75 | 1000.8 | |
| 20260507235608 | 67 | 0.0 | 0.0 | 0.00 | 0.00 | 0.00 | 77 | 1000.7 | |
| 20260507235110 | 67 | 0.0 | 0.0 | 0.00 | 0.00 | 0.00 | 76 | 1000.7 | |
| 20260507234606 | 66 | 0.0 | 0.0 | 0.00 | 0.00 | 0.00 | 78 | 1000.7 | |
| 20260507234105 | 66 | 0.0 | 0.0 | 0.00 | 0.00 | 0.00 | 78 | 1000.8 | |
| 20260507233604 | 66 | 0.0 | 0.0 | 0.00 | 0.00 | 0.00 | 80 | 1000.8 | |
| 20260507233103 | 66 | 0.0 | 0.0 | 0.00 | 0.00 | 0.00 | 79 | 1000.7 | |
| 20260507232602 | 66 | 0.0 | 0.0 | 0.00 | 0.00 | 0.00 | 79 | 1000.8 | |
| 20260507232100 | 66 | 0.0 | 0.0 | 0.00 | 0.00 | 0.00 | 78 | 1000.7 | |
| 20260507231602 | 66 | 0.0 | 0.0 | 0.00 | 0.00 | 0.00 | 78 | 1000.6 | |
| 20260507231059 | 66 | 0.0 | 0.0 | 0.00 | 0.00 | 0.00 | 77 | 1000.5 | |
| 20260507230558 | 67 | 0.0 | 0.0 | 0.00 | 0.00 | 0.00 | 77 | 1000.7 | |
| 20260507230057 | 67 | 0.0 | 0.0 | 0.00 | 0.00 | 0.00 | 77 | 1000.8 | |
| 20260507225556 | 67 | 0.0 | 0.0 | 0.00 | 0.00 | 0.00 | 76 | 1000.6 | |
| 20260507225055 | 67 | 0.0 | 0.0 | 0.00 | 0.00 | 0.00 | 76 | 1000.6 | |
| 20260507224554 | 67 | 0.0 | 0.0 | 0.00 | 0.00 | 0.00 | 76 | 1000.5 | |
| 20260507224053 | 67 | 0.0 | 0.0 | 0.00 | 0.00 | 0.00 | 76 | 1000.6 | |
| 20260507223552 | 67 | 0.0 | 0.0 | 0.00 | 0.00 | 0.00 | 76 | 1000.6 | |
| 20260507223051 | 67 | 0.0 | 0.0 | 0.00 | 0.00 | 0.00 | 74 | 1000.6 | |
| 20260507222550 | 67 | 0.0 | 0.0 | 0.00 | 0.00 | 0.00 | 71 | 1000.6 | |
| 20260507222050 | 68 | 0.0 | 0.0 | 0.00 | 0.00 | 0.00 | 69 | 1000.7 | |
| 20260507221548 | 68 | 0.0 | 0.0 | 0.00 | 0.00 | 0.00 | 68 | 1000.5 | |
| 20260507221047 | 68 | 0.0 | 0.0 | 0.00 | 0.00 | 0.00 | 67 | 1000.5 | |
| 20260507220546 | 68 | 0.0 | 0.0 | 0.00 | 0.00 | 0.00 | 68 | 1000.4 | |
| 20260507220045 | 68 | 0.0 | 0.0 | 0.00 | 0.00 | 0.00 | 69 | 1000.2 | |
| 20260507215544 | 68 | 0.0 | 0.0 | 0.00 | 0.00 | 0.00 | 69 | 1000.1 | |
| 20260507215043 | 68 | 0.0 | 0.0 | 0.00 | 0.00 | 0.00 | 69 | 999.9 | |
| 20260507214542 | 68 | 0.0 | 0.0 | 0.00 | 0.00 | 0.00 | 68 | 999.9 | |
| 20260507214041 | 68 | 0.0 | 0.0 | 0.00 | 0.00 | 0.00 | 68 | 999.7 | |
| 20260507213540 | 67 | 0.0 | 0.0 | 0.00 | 0.00 | 0.00 | 69 | 999.6 | |
| 20260507213039 | 67 | 0.0 | 0.0 | 0.00 | 0.00 | 0.00 | 70 | 999.7 | |
| 20260507212541 | 67 | 0.0 | 0.0 | 0.00 | 0.00 | 0.00 | 69 | 999.8 | |
| 20260507212037 | 67 | 0.0 | 0.0 | 0.00 | 0.00 | 0.00 | 69 | 999.8 | |
| 20260507211536 | 67 | 0.0 | 0.0 | 0.00 | 0.00 | 0.00 | 73 | 999.8 | |
| 20260507211034 | 67 | 0.0 | 0.0 | 0.00 | 0.00 | 0.00 | 75 | 999.9 | |
| 20260507210534 | 67 | 0.0 | 0.0 | 0.00 | 0.00 | 0.00 | 76 | 999.9 | |
| 20260507210036 | 67 | 0.0 | 0.0 | 0.00 | 0.00 | 0.00 | 77 | 1000.0 | |
| 20260507205533 | 67 | 0.0 | 0.0 | 0.00 | 0.00 | 0.00 | 79 | 1000.0 | |
| 20260507205035 | 68 | 0.0 | 0.0 | 0.00 | 0.00 | 0.00 | 80 | 1000.0 | |
| 20260507204530 | 68 | 0.0 | 0.0 | 0.00 | 0.00 | 0.00 | 80 | 999.9 | |
| 20260507204029 | 68 | 0.0 | 0.0 | 0.00 | 0.00 | 0.00 | 80 | 999.9 | |
| 20260507203528 | 68 | 0.0 | 0.0 | 0.00 | 0.00 | 0.00 | 81 | 999.9 | |
| 20260507203027 | 68 | 0.0 | 0.0 | 0.00 | 0.00 | 0.00 | 81 | 999.9 | |
| 20260507202526 | 68 | 0.0 | 0.0 | 0.00 | 0.00 | 0.00 | 81 | 999.7 | |
| 20260507202025 | 68 | 0.0 | 0.0 | 0.00 | 0.00 | 0.00 | 80 | 999.7 | |
| 20260507201524 | 68 | 0.0 | 0.0 | 0.00 | 0.00 | 0.00 | 79 | 999.6 | |
| 20260507201023 | 69 | 0.0 | 0.0 | 0.00 | 0.00 | 0.00 | 79 | 999.4 | |
| 20260507200528 | 69 | 0.0 | 0.0 | 0.00 | 0.00 | 0.00 | 78 | 999.5 | |
| 20260507200020 | 69 | 0.0 | 0.0 | 0.00 | 0.00 | 0.00 | 77 | 999.5 | |
| 20260507195520 | 69 | 0.0 | 0.0 | 0.00 | 0.00 | 0.00 | 77 | 999.4 | |
| 20260507195019 | 69 | 0.0 | 0.0 | 0.00 | 0.00 | 0.00 | 77 | 999.4 | |
| 20260507194518 | 69 | 0.0 | 0.0 | 0.00 | 0.00 | 0.00 | 77 | 999.4 | |
| 20260507194017 | 69 | 0.0 | 0.0 | 0.00 | 0.00 | 0.00 | 78 | 999.4 | |
| 20260507193516 | 69 | 0.0 | 0.0 | 0.00 | 0.00 | 0.00 | 77 | 999.4 | |
| 20260507193015 | 69 | 0.0 | 0.0 | 0.00 | 0.00 | 0.00 | 77 | 999.4 | |
| 20260507192514 | 69 | 0.0 | 0.0 | 0.00 | 0.00 | 0.00 | 76 | 999.5 | |
| 20260507192013 | 69 | 0.0 | 0.0 | 0.00 | 0.00 | 0.00 | 76 | 999.5 | |
| 20260507191512 | 69 | 0.0 | 0.0 | 0.00 | 0.00 | 0.00 | 76 | 999.5 | |
| 20260507191012 | 69 | 0.0 | 0.0 | 0.00 | 0.00 | 0.00 | 77 | 999.5 | |
| 20260507190510 | 69 | 0.0 | 0.0 | 0.00 | 0.00 | 0.00 | 77 | 999.5 | |
| 20260507190010 | 69 | 0.0 | 0.0 | 0.00 | 0.00 | 0.00 | 78 | 999.5 | |
| 20260507185508 | 69 | 0.0 | 0.0 | 0.00 | 0.00 | 0.00 | 78 | 999.4 | |
| 20260507185007 | 69 | 0.0 | 0.0 | 0.00 | 0.00 | 0.00 | 78 | 999.3 | |
| 20260507184506 | 69 | 0.0 | 0.0 | 0.00 | 0.00 | 0.00 | 78 | 999.3 | |
| 20260507184005 | 69 | 0.0 | 0.0 | 0.00 | 0.00 | 0.00 | 78 | 999.2 | |
| 20260507183504 | 69 | 0.0 | 0.0 | 0.00 | 0.00 | 0.00 | 78 | 999.2 | |
| 20260507183003 | 69 | 0.0 | 0.0 | 0.00 | 0.00 | 0.00 | 77 | 999.2 | |
| 20260507182502 | 69 | 0.0 | 0.0 | 0.00 | 0.00 | 0.00 | 76 | 999.2 | |
| 20260507182004 | 69 | 0.0 | 0.0 | 0.00 | 0.00 | 0.00 | 76 | 999.1 | |
| 20260507181500 | 69 | 0.0 | 0.0 | 0.00 | 0.00 | 0.00 | 75 | 999.1 | |
| 20260507180959 | 69 | 0.0 | 0.0 | 0.00 | 0.00 | 0.00 | 75 | 999.0 | |
| 20260507180458 | 69 | 0.0 | 0.0 | 0.00 | 0.00 | 0.00 | 76 | 999.0 | |
| 20260507175957 | 69 | 0.0 | 0.0 | 0.00 | 0.00 | 0.00 | 76 | 999.0 | |
| 20260507175456 | 69 | 0.0 | 0.0 | 0.00 | 0.00 | 0.00 | 77 | 999.1 | |
| 20260507174954 | 69 | 0.0 | 0.0 | 0.00 | 0.00 | 0.00 | 76 | 999.0 | |
| 20260507174454 | 69 | 0.0 | 0.0 | 0.00 | 0.00 | 0.00 | 76 | 999.1 | |
| 20260507173953 | 69 | 0.0 | 0.0 | 0.00 | 0.00 | 0.00 | 76 | 999.0 | |
| 20260507173455 | 69 | 0.0 | 0.0 | 0.00 | 0.00 | 0.00 | 76 | 999.1 | |
| 20260507172954 | 69 | 0.0 | 0.0 | 0.00 | 0.00 | 0.00 | 76 | 999.0 | |
| 20260507172450 | 69 | 0.0 | 0.0 | 0.00 | 0.00 | 0.00 | 76 | 998.9 | |
| 20260507171949 | 69 | 0.0 | 0.0 | 0.00 | 0.00 | 0.00 | 77 | 998.9 | |
| 20260507171449 | 69 | 0.0 | 0.0 | 0.00 | 0.00 | 0.00 | 77 | 999.0 | |
| 20260507170947 | 69 | 0.0 | 0.0 | 0.00 | 0.00 | 0.00 | 77 | 999.2 | |
| 20260507170446 | 69 | 0.0 | 0.0 | 0.00 | 0.00 | 0.00 | 77 | 999.2 | |
| 20260507165945 | 69 | 0.0 | 0.0 | 0.00 | 0.00 | 0.00 | 78 | 999.2 | |
| 20260507165444 | 69 | 0.0 | 0.0 | 0.00 | 0.00 | 0.00 | 79 | 999.3 | |
| 20260507164943 | 69 | 0.0 | 0.0 | 0.00 | 0.00 | 0.00 | 79 | 999.4 | |
| 20260507164442 | 68 | 0.0 | 0.0 | 0.00 | 0.00 | 0.00 | 79 | 999.3 | |
| 20260507163942 | 68 | 0.0 | 0.0 | 0.00 | 0.00 | 0.00 | 80 | 999.4 | |
| 20260507163440 | 68 | 0.0 | 0.0 | 0.00 | 0.00 | 0.00 | 82 | 999.5 | |
| 20260507162939 | 68 | 0.0 | 0.0 | 0.00 | 0.00 | 0.00 | 83 | 999.4 | |
| 20260507162438 | 68 | 0.0 | 0.0 | 0.00 | 0.00 | 0.00 | 83 | 999.4 | |
| 20260507161943 | 68 | 0.0 | 0.0 | 0.00 | 0.00 | 0.00 | 83 | 999.4 | |
| 20260507161436 | 68 | 0.0 | 0.0 | 0.00 | 0.00 | 0.00 | 83 | 999.4 | |
| 20260507160935 | 68 | 0.0 | 0.0 | 0.00 | 0.00 | 0.00 | 83 | 999.5 | |
| 20260507160435 | 68 | 0.0 | 0.0 | 0.00 | 0.00 | 0.00 | 84 | 999.5 | |
| 20260507155933 | 68 | 0.0 | 0.0 | 0.00 | 0.00 | 0.00 | 83 | 999.5 | |
| 20260507155439 | 68 | 0.0 | 0.0 | 0.00 | 0.00 | 0.00 | 83 | 999.6 | |
| 20260507154932 | 68 | 0.0 | 0.0 | 0.00 | 0.00 | 0.00 | 82 | 999.7 | |
| 20260507154430 | 68 | 0.0 | 0.0 | 0.00 | 0.00 | 0.00 | 82 | 999.7 | |
| 20260507153930 | 68 | 0.0 | 0.0 | 0.00 | 0.00 | 0.00 | 82 | 999.8 | |
| 20260507153428 | 68 | 0.0 | 0.0 | 0.00 | 0.00 | 0.00 | 82 | 999.8 | |
| 20260507152927 | 68 | 0.0 | 0.0 | 0.00 | 0.00 | 0.00 | 82 | 999.8 | |
| 20260507152426 | 68 | 0.0 | 0.0 | 0.00 | 0.00 | 0.00 | 81 | 999.9 | |
| 20260507151925 | 68 | 0.0 | 0.0 | 0.00 | 0.00 | 0.00 | 81 | 1000.0 | |
| 20260507151424 | 69 | 0.0 | 0.0 | 0.00 | 0.00 | 0.00 | 81 | 1000.1 | |
| 20260507150923 | 69 | 0.0 | 0.0 | 0.00 | 0.00 | 0.00 | 80 | 1000.2 | |
| 20260507150422 | 68 | 0.0 | 0.0 | 0.00 | 0.00 | 0.00 | 80 | 1000.2 | |
| 20260507145921 | 69 | 0.0 | 0.0 | 0.00 | 0.00 | 0.00 | 80 | 1000.2 | |
| 20260507145420 | 69 | 0.0 | 0.0 | 0.00 | 0.00 | 0.00 | 79 | 1000.2 | |
| 20260507144919 | 69 | 0.0 | 0.0 | 0.00 | 0.00 | 0.00 | 79 | 1000.1 | |
| 20260507144418 | 69 | 0.0 | 0.0 | 0.00 | 0.00 | 0.00 | 78 | 1000.1 | |
| 20260507143917 | 69 | 0.0 | 0.0 | 0.00 | 0.00 | 0.00 | 79 | 1000.2 | |
| 20260507143416 | 69 | 0.0 | 0.0 | 0.00 | 0.00 | 0.00 | 78 | 1000.2 | |
| 20260507142915 | 69 | 0.0 | 0.0 | 0.00 | 0.00 | 0.00 | 78 | 1000.3 | |
| 20260507142414 | 69 | 0.0 | 0.0 | 0.00 | 0.00 | 0.00 | 78 | 1000.3 | |
| 20260507141913 | 69 | 0.0 | 0.0 | 0.00 | 0.00 | 0.00 | 78 | 1000.3 | |
| 20260507141412 | 69 | 0.0 | 0.0 | 0.00 | 0.00 | 0.00 | 78 | 1000.3 | |
| 20260507140912 | 69 | 0.0 | 0.0 | 0.00 | 0.00 | 0.00 | 78 | 1000.4 | |
| 20260507140410 | 69 | 0.0 | 0.0 | 0.00 | 0.00 | 0.00 | 77 | 1000.4 | |
| 20260507135911 | 69 | 0.0 | 0.0 | 0.00 | 0.00 | 0.00 | 76 | 1000.3 | |
| 20260507135408 | 70 | 0.0 | 0.0 | 0.00 | 0.00 | 0.00 | 76 | 1000.4 | |
| 20260507134907 | 70 | 0.0 | 0.0 | 0.00 | 0.00 | 0.00 | 75 | 1000.4 | |
| 20260507134406 | 70 | 0.0 | 0.0 | 0.00 | 0.00 | 0.00 | 75 | 1000.4 | |
| 20260507133905 | 70 | 0.0 | 0.0 | 0.00 | 0.00 | 0.00 | 74 | 1000.5 | |
| 20260507133404 | 70 | 0.0 | 0.0 | 0.00 | 0.00 | 0.00 | 74 | 1000.5 | |
| 20260507132903 | 69 | 0.0 | 0.0 | 0.00 | 0.00 | 0.00 | 75 | 1000.5 | |
| 20260507132402 | 69 | 0.0 | 0.0 | 0.00 | 0.00 | 0.00 | 75 | 1000.5 | |
| 20260507131901 | 70 | 0.0 | 0.0 | 0.00 | 0.00 | 0.00 | 75 | 1000.6 | |
| 20260507131406 | 70 | 0.0 | 0.0 | 0.00 | 0.00 | 0.00 | 74 | 1000.6 | |
| 20260507130901 | 70 | 0.0 | 0.0 | 0.00 | 0.00 | 0.00 | 72 | 1000.6 | |
| 20260507130358 | 70 | 0.0 | 0.0 | 0.00 | 0.00 | 0.00 | 72 | 1000.6 | |
| 20260507125857 | 70 | 0.0 | 0.0 | 0.00 | 0.00 | 0.00 | 73 | 1000.6 | |
| 20260507125356 | 70 | 0.0 | 0.0 | 0.00 | 0.00 | 0.00 | 73 | 1000.5 | |
| 20260507124855 | 70 | 0.0 | 0.0 | 0.00 | 0.00 | 0.00 | 73 | 1000.6 | |
| 20260507124357 | 70 | 0.0 | 0.0 | 0.00 | 0.00 | 0.00 | 73 | 1000.5 | |
| 20260507123853 | 70 | 0.0 | 0.0 | 0.00 | 0.00 | 0.00 | 72 | 1000.5 | |
| 20260507123353 | 70 | 0.0 | 0.0 | 0.00 | 0.00 | 0.00 | 72 | 1000.4 | |
| 20260507122853 | 71 | 0.0 | 0.0 | 0.00 | 0.00 | 0.00 | 71 | 1000.4 | |
| 20260507122350 | 71 | 0.0 | 0.0 | 0.00 | 0.00 | 0.00 | 71 | 1000.4 | |
| 20260507121849 | 71 | 0.0 | 0.0 | 0.00 | 0.00 | 0.00 | 71 | 1000.4 | |
| 20260507121349 | 71 | 0.0 | 0.0 | 0.00 | 0.00 | 0.00 | 70 | 1000.5 | |
| 20260507120847 | 71 | 0.0 | 0.0 | 0.00 | 0.00 | 0.00 | 69 | 1000.6 | |
| 20260507120346 | 72 | 0.0 | 0.0 | 0.00 | 0.00 | 0.00 | 68 | 1000.4 | |
| 20260507115845 | 72 | 0.0 | 0.0 | 0.00 | 0.00 | 0.00 | 68 | 1000.4 | |
| 20260507115344 | 72 | 0.0 | 0.0 | 0.00 | 0.00 | 0.00 | 67 | 1000.3 | |
| 20260507114843 | 72 | 0.0 | 0.0 | 0.00 | 0.00 | 0.00 | 67 | 1000.3 | |
| 20260507114344 | 72 | 0.0 | 0.0 | 0.00 | 0.00 | 0.00 | 66 | 1000.1 | |
| 20260507113841 | 72 | 0.0 | 0.0 | 0.00 | 0.00 | 0.00 | 66 | 1000.1 | |
| 20260507113340 | 72 | 0.0 | 0.0 | 0.00 | 0.00 | 0.00 | 66 | 1000.1 | |
| 20260507112839 | 73 | 0.0 | 0.0 | 0.00 | 0.00 | 0.00 | 65 | 1000.1 | |
| 20260507112338 | 73 | 0.0 | 0.0 | 0.00 | 0.00 | 0.00 | 65 | 1000.0 | |
| 20260507111838 | 73 | 0.0 | 0.0 | 0.00 | 0.00 | 0.00 | 65 | 1000.0 | |
| 20260507111336 | 73 | 0.0 | 0.0 | 0.00 | 0.00 | 0.00 | 64 | 999.9 | |
| 20260507110838 | 73 | 0.0 | 0.0 | 0.00 | 0.00 | 0.00 | 63 | 1000.0 | |
| 20260507110336 | 73 | 0.0 | 0.0 | 0.00 | 0.00 | 0.00 | 63 | 1000.0 | |
| 20260507105835 | 73 | 0.0 | 0.0 | 0.00 | 0.00 | 0.00 | 63 | 999.8 | |
| 20260507105337 | 73 | 0.0 | 0.0 | 0.00 | 0.00 | 0.00 | 62 | 999.8 | |
| 20260507104831 | 73 | 0.0 | 0.0 | 0.00 | 0.00 | 0.00 | 62 | 999.7 | |
| 20260507104330 | 73 | 0.0 | 0.0 | 0.00 | 0.00 | 0.00 | 62 | 999.6 | |
| 20260507103837 | 73 | 0.0 | 0.0 | 0.00 | 0.00 | 0.00 | 62 | 999.6 | |
| 20260507103328 | 74 | 0.0 | 0.0 | 0.00 | 0.00 | 0.00 | 61 | 999.6 | |
| 20260507102827 | 74 | 0.0 | 0.0 | 0.00 | 0.00 | 0.00 | 61 | 999.6 | |
| 20260507102326 | 74 | 0.0 | 0.0 | 0.00 | 0.00 | 0.00 | 60 | 999.6 | |
| 20260507101825 | 74 | 0.0 | 0.0 | 0.00 | 0.00 | 0.00 | 60 | 999.7 | |
| 20260507101327 | 74 | 0.0 | 0.0 | 0.00 | 0.00 | 0.00 | 59 | 999.7 | |
| 20260507100823 | 75 | 0.0 | 0.0 | 0.00 | 0.00 | 0.00 | 58 | 999.8 | |
| 20260507100322 | 75 | 0.0 | 0.0 | 0.00 | 0.00 | 0.00 | 58 | 999.8 | |
| 20260507095823 | 75 | 0.0 | 0.0 | 0.00 | 0.00 | 0.00 | 57 | 999.8 | |
| 20260507095320 | 75 | 0.0 | 0.0 | 0.00 | 0.00 | 0.00 | 56 | 999.7 | |
| 20260507094819 | 75 | 0.0 | 0.0 | 0.00 | 0.00 | 0.00 | 55 | 999.5 | |
| 20260507094318 | 76 | 0.0 | 0.0 | 0.00 | 0.00 | 0.00 | 54 | 999.5 | |
| 20260507093817 | 76 | 0.0 | 0.0 | 0.00 | 0.00 | 0.00 | 54 | 999.4 | |
| 20260507093319 | 76 | 0.0 | 0.0 | 0.00 | 0.00 | 0.00 | 53 | 999.5 | |
| 20260507092821 | 77 | 0.0 | 0.0 | 0.00 | 0.00 | 0.00 | 52 | 999.4 | |
| 20260507092315 | 77 | 0.0 | 0.0 | 0.00 | 0.00 | 0.00 | 52 | 999.4 | |
| 20260507091813 | 77 | 0.0 | 0.0 | 0.00 | 0.00 | 0.00 | 51 | 999.4 | |
| 20260507091312 | 78 | 0.0 | 0.0 | 0.00 | 0.00 | 0.00 | 50 | 999.4 | |
| 20260507090811 | 78 | 0.0 | 0.0 | 0.00 | 0.00 | 0.00 | 49 | 999.4 | |
| 20260507090310 | 79 | 0.0 | 0.0 | 0.00 | 0.00 | 0.00 | 48 | 999.4 | |
| 20260507085810 | 79 | 0.0 | 0.0 | 0.00 | 0.00 | 0.00 | 48 | 999.4 | |
| 20260507085308 | 79 | 0.0 | 0.0 | 0.00 | 0.00 | 0.00 | 47 | 999.4 | |
| 20260507084808 | 80 | 0.0 | 0.0 | 0.00 | 0.00 | 0.00 | 46 | 999.3 | |
| 20260507084306 | 80 | 0.0 | 0.0 | 0.00 | 0.00 | 0.00 | 46 | 999.4 | |
| 20260507083805 | 80 | 0.0 | 0.0 | 0.00 | 0.00 | 0.00 | 46 | 999.4 | |
| 20260507083304 | 80 | 0.0 | 0.0 | 0.00 | 0.00 | 0.00 | 46 | 999.5 | |
| 20260507082803 | 80 | 0.0 | 0.0 | 0.00 | 0.00 | 0.00 | 46 | 999.5 | |
| 20260507082306 | 81 | 0.0 | 0.0 | 0.00 | 0.00 | 0.00 | 46 | 999.5 | |
| 20260507081803 | 81 | 0.0 | 0.0 | 0.00 | 0.00 | 0.00 | 45 | 999.5 | |
| 20260507081302 | 81 | 0.0 | 0.0 | 0.00 | 0.00 | 0.00 | 45 | 999.6 | |
| 20260507080759 | 81 | 0.0 | 0.0 | 0.00 | 0.00 | 0.00 | 45 | 999.6 | |
| 20260507080259 | 81 | 0.0 | 0.0 | 0.00 | 0.00 | 0.00 | 44 | 999.7 | |
| 20260507075757 | 82 | 0.0 | 0.0 | 0.00 | 0.00 | 0.00 | 44 | 999.7 | |
| 20260507075258 | 82 | 0.0 | 0.0 | 0.00 | 0.00 | 0.00 | 45 | 999.5 | |
| 20260507074755 | 81 | 0.0 | 0.0 | 0.00 | 0.00 | 0.00 | 45 | 999.6 | |
| 20260507074254 | 81 | 0.0 | 0.0 | 0.00 | 0.00 | 0.00 | 45 | 999.6 | |
| 20260507073800 | 82 | 0.0 | 0.0 | 0.00 | 0.00 | 0.00 | 45 | 999.6 | |
| 20260507073252 | 82 | 0.0 | 0.0 | 0.00 | 0.00 | 0.00 | 46 | 999.5 | |
| 20260507072751 | 82 | 0.0 | 0.0 | 0.00 | 0.00 | 0.00 | 46 | 999.6 | |
| 20260507072250 | 81 | 0.0 | 0.0 | 0.00 | 0.00 | 0.00 | 46 | 999.6 | |
| 20260507071749 | 82 | 0.0 | 0.0 | 0.00 | 0.00 | 0.00 | 46 | 999.7 |